User: anonymous   Login
Location: Unspecified
(0.0000°N, 0.0000°E)
Time: 22:21:52
(UTC+00:00)
Language:

PLEIADES HR1 - Orbit

View from above orbital plane
View from above orbital plane
View from above satellite
View from above satellite

Ground track
Ground track

The orbit data is extracted from the following two-line orbital elements,

1 38012U 11076F   16147.49882279 -.00000007  00000-0  82802-5 0  9990
2 38012  98.2008 222.1111 0001617  81.9113 278.2238 14.58554680236493
Epoch (UTC): 26 May 2016 11:58:18
Eccentricity: 0.0001617
inclination: 98.2008°
perigee height: 697 km
apogee height: 699 km
right ascension of ascending node: 222.1111°
argument of perigee: 81.9113°
revolutions per day: 14.58554680
mean anomaly at epoch: 278.2238°
orbit number at epoch: 23649

The dashed part of the orbit path shows where the satellite is in the earth's shadow,  

DLR